Flag for United Kingdom

Past Weather in 52°17'09.3"N, 1°54'36.6"W, United Kingdom — Yesterday and Last 2 Weeks

Currently: 49 °F. Cool. (Weather station: Shirley - MADIS Station, United Kingdom). See more current weather

Past Weather in 52°17'09.3"N, 1°54'36.6"W — Graph

°F

52°17'09.3"N, 1°54'36.6"W Temperature Yesterday

Maximum temperature yesterday: 56 °F (at 12:00 pm)
Minimum temperature yesterday: 50 °F (at 11:00 pm)
Average temperature yesterday: 53 °F

High & Low Weather Summary for the Past Weeks

 TemperatureHumidityPressure
High80 °F (May 12, 4:00 pm)95% (May 17, 7:15 am)29.80 "Hg (May 17, 7:15 am)
Low46 °F (May 20, 5:30 am)39% (May 9, 1:15 pm)28.97 "Hg (May 14, 5:15 am)
Average59 °F76%29.36 "Hg
* Reported May 9 6:00 am — May 24 6:30 am, 52°17'09.3"N, 1°54'36.6"W. Weather by CustomWeather, © 2024

Note: Actual official high and low records may vary slightly from our data, if they occured in-between our weather recording intervals... More about our weather records

52°17'09.3"N, 1°54'36.6"W Weather History for the Previous 24 Hours

Scroll right to see more
 ConditionsComfort  
Time TempWeatherWind HumidityBarometerVisibility
6:30 am
Fri, May 24
49 °FCool.4 mph87%29.50 "HgN/A
5:30 am48 °FCool.2 mph88%29.49 "HgN/A
4:00 am48 °FCool.3 mph87%29.48 "HgN/A
3:00 am49 °FCool.3 mph85%29.47 "HgN/A
1:15 am49 °FCool.3 mph82%29.47 "HgN/A
12:15 am50 °FCool.3 mph81%29.47 "HgN/A
12:00 am50 °FCool.3 mph81%29.46 "HgN/A
11:30 pm
Thu, May 23
50 °FCool.3 mph81%29.47 "HgN/A
11:00 pm50 °FCool.3 mph80%29.47 "HgN/A
10:30 pm51 °FCool.3 mph79%29.46 "HgN/A
8:45 pm52 °FCool.4 mph76%29.45 "HgN/A
8:15 pm53 °FCool.3 mph75%29.44 "HgN/A
7:45 pm53 °FCool.3 mph74%29.43 "HgN/A
7:15 pm53 °FCool.3 mph74%29.42 "HgN/A
6:45 pm53 °FCool.4 mph74%29.42 "HgN/A
6:30 pm53 °FCool.5 mph74%29.42 "HgN/A
6:15 pm54 °FCool.6 mph73%29.41 "HgN/A
6:00 pm54 °FCool.6 mph73%29.41 "HgN/A
5:30 pm55 °FCool.4 mph72%29.41 "HgN/A
5:15 pm55 °FCool.5 mph71%29.40 "HgN/A
5:00 pm55 °FCool.5 mph71%29.40 "HgN/A
4:15 pm55 °FCool.8 mph70%29.40 "HgN/A
4:00 pm56 °FCool.6 mph69%29.40 "HgN/A
3:00 pm56 °FCool.6 mph68%29.39 "HgN/A
2:30 pm55 °FCool.5 mph71%29.39 "HgN/A
2:15 pm55 °FCool.6 mph72%29.39 "HgN/A
1:45 pm56 °FCool.5 mph71%29.39 "HgN/A
1:00 pm55 °FCool.5 mph72%29.38 "HgN/A
12:45 pm55 °FCool.7 mph71%29.38 "HgN/A
12:15 pm56 °FCool.6 mph73%29.38 "HgN/A
12:00 pm56 °FCool.7 mph72%29.37 "HgN/A
11:30 am54 °FCool.7 mph74%29.37 "HgN/A
11:15 am54 °FCool.5 mph75%29.37 "HgN/A
11:00 am54 °FCool.5 mph75%29.37 "HgN/A
10:15 am53 °FCool.6 mph78%29.37 "HgN/A
8:45 am52 °FCool.5 mph81%29.35 "HgN/A
8:15 am51 °FCool.4 mph83%29.34 "HgN/A
7:00 am51 °FCool.4 mph87%29.33 "HgN/A
Weather by CustomWeather, © 2024

See weather overview